Location: Asheville, NC
(35.6000°N, 82.5500°W)
Time: 09:51:07

Vanguard 2 Rocket - Pass Details

Date: 11 December 2017
Orbit: 554 x 3327 km, 32.9° (Epoch: 22 March)

Event Time Altitude Azimuth Distance (km) Brightness Sun altitude
Rises 00:51:22 0° 280° (W) 6,811 11.3 -76.0°
Enters shadow 00:51:54 - 280° (W) 6,708 11.3 -76.0°
Exits shadow 01:32:09 12° 122° (ESE) 5,201 10.7 -70.5°
Drops below altitude 10° 01:32:49 10° 122° (ESE) 5,332 10.8 -70.4°
Sets 01:36:20 0° 120° (ESE) 6,052 11.2 -69.8°
